[[{"header":{"parameterUnit":"m.s-1","parameterCategory":1,"la1":30.2992,"la2":30.254,"lo1":-89.0895,"lo2":-89.0443,"dy":0.0025,"dx":0.0025,"nx":19,"ny":19,"refTime":"2026-04-05T09:00:00:Z","depth":0,"parameterNumber":2,"parameterNumberName":"U-component_of_WINDS"},"data":[0,0,0,1.1176,1.1176,1.1161,1.1161,1.1147,1.1147,0,0,0,0,0,0,0,0,0,0,0,1.1183,1.1183,1.1176,1.1176,1.1161,1.1161,1.1147,1.1147,0,0,0,0,0,0,0,0,0,0,0,1.1183,1.1183,1.1183,1.1176,1.1161,1.1161,1.1148,1.1157,0,0,0,0,0,0,0,0,0,0,1.117,1.118,1.1183,1.1183,1.1175,1.1161,1.1161,1.1157,1.1156,1.1157,0,1.1158,0,1.1153,1.1147,1.1147,0,0,0,1.1173,1.1181,1.1174,1.1183,1.1175,1.1161,1.1167,1.1156,1.1155,1.1156,1.1158,1.1157,1.1152,1.1147,1.1147,1.1161,1.1161,0,0,1.1174,1.1182,1.1175,1.1174,1.1176,1.1167,1.1166,1.1156,1.1158,1.1158,1.1157,1.1152,1.1147,1.1147,1.1161,1.1161,0,0,0,1.1178,1.1183,1.1176,1.1174,1.1171,1.1167,1.1166,1.1159,1.1156,1.1156,1.1152,1.1147,1.1147,1.1161,1.1161,1.1179,0,0,0,1.1178,1.1185,1.1177,1.1182,1.1172,1.1165,1.1169,1.1157,1.1155,1.1152,1.1147,1.1147,1.116,1.1161,1.1178,1.1186,0,0,0,1.1183,1.1186,1.1185,1.1182,1.1176,1.1165,1.1161,1.1156,1.1153,1.1147,1.1147,1.116,1.1161,1.1177,1.1184,1.1193,0,0,0,1.1191,1.1199,1.1185,1.1194,1.1176,1.1176,1.1161,1.116,1.1157,1.1147,1.116,1.1161,1.1177,1.1183,1.1192,1.1201,1.1206,0,0,1.1206,1.1201,1.1206,1.1193,1.1198,1.1178,1.1185,1.1174,1.1165,1.1163,1.1163,1.1178,1.1184,1.1193,1.123,1.1234,0,0,0,1.1214,1.1217,1.1216,1.1215,1.1208,1.1203,1.119,1.1186,1.1185,1.1166,1.1183,1.1187,1.1191,1.1195,1.1199,1.1203,1.1163,1.1163,1.1163,1.1246,1.1237,1.1244,1.1234,1.1233,1.1221,1.122,1.1213,1.1201,1.1207,1.1205,1.123,1.1235,1.1237,1.1242,1.121,1.121,1.121,1.121,1.1268,1.1272,1.126,1.1263,1.1254,1.1256,1.1247,1.124,1.1241,1.1229,1.1232,1.1219,1.1242,1.1245,1.1211,1.1211,1.1211,1.1211,1.1211,1.1288,1.1288,1.1285,1.1284,1.1285,1.1275,1.1278,1.1268,1.126,1.1264,1.1263,1.1262,1.1261,1.1264,1.1264,1.1264,1.1264,1.1264,1.1264,1.131,1.1306,1.1309,1.1306,1.1305,1.1304,1.1295,1.1294,1.1291,1.1285,1.1285,1.1274,1.1246,1.1239,1.1266,1.1265,1.1265,1.1265,1.1265,1.1335,1.1328,1.1334,1.1334,1.133,1.1333,1.1323,1.1323,1.1322,1.1324,1.1314,1.1295,1.1288,1.1286,1.128,1.1315,1.1315,1.1315,1.1315,1.1351,1.1348,1.1354,1.1355,1.1355,1.1347,1.1356,1.1351,1.1344,1.1343,1.1337,1.1329,1.1327,1.1322,1.1319,1.1313,1.1356,1.1357,1.1357,1.1367,1.1364,1.1372,1.1367,1.1365,1.1363,1.1372,1.1374,1.1366,1.1358,1.1343,1.1341,1.1328,1.1324,1.1314,1.1309,1.1298,0,0]},{"header":{"parameterUnit":"m.s-1","parameterCategory":1,"la1":30.2992,"la2":30.254,"lo1":-89.0895,"lo2":-89.0443,"dy":0.0025,"dx":0.0025,"nx":19,"ny":19,"refTime":"2026-04-05T09:00:00:Z","depth":0,"parameterNumber":3,"parameterNumberName":"V-component_of_WINDS"},"data":[0,0,0,-6.2259,-6.2264,-6.2491,-6.2491,-6.2777,-6.278,0,0,0,0,0,0,0,0,0,0,0,-6.2193,-6.2195,-6.2259,-6.2265,-6.249,-6.2491,-6.2777,-6.278,0,0,0,0,0,0,0,0,0,0,0,-6.2192,-6.2194,-6.2197,-6.2265,-6.249,-6.2492,-6.2776,-6.2606,0,0,0,0,0,0,0,0,0,0,-6.2387,-6.2326,-6.2194,-6.2197,-6.2267,-6.249,-6.2492,-6.2598,-6.2617,-6.2674,0,-6.2728,0,-6.2759,-6.2799,-6.28,0,0,0,-6.2263,-6.2311,-6.2372,-6.2197,-6.2269,-6.249,-6.2388,-6.2608,-6.263,-6.2699,-6.2732,-6.2743,-6.2764,-6.2801,-6.2802,-6.3147,-6.3148,0,0,-6.2251,-6.2233,-6.2357,-6.2386,-6.2354,-6.2381,-6.2395,-6.2621,-6.2655,-6.2733,-6.2749,-6.2768,-6.2803,-6.2805,-6.3145,-6.3147,0,0,0,-6.2216,-6.2224,-6.228,-6.2374,-6.2415,-6.2387,-6.2404,-6.2645,-6.2664,-6.2753,-6.2772,-6.2805,-6.2808,-6.3143,-6.3146,-6.3213,0,0,0,-6.2208,-6.2204,-6.2274,-6.2265,-6.2411,-6.2533,-6.2422,-6.2649,-6.2675,-6.277,-6.2805,-6.2811,-6.3141,-6.3145,-6.3207,-6.3247,0,0,0,-6.2178,-6.22,-6.2234,-6.2264,-6.2361,-6.253,-6.2563,-6.2655,-6.2687,-6.28,-6.2812,-6.314,-6.3144,-6.3202,-6.3239,-6.3334,0,0,0,-6.2139,-6.2287,-6.2234,-6.2407,-6.2359,-6.2571,-6.2562,-6.2719,-6.2824,-6.2806,-6.3142,-6.3145,-6.3201,-6.3234,-6.3329,-6.3412,-6.3445,0,0,-6.2316,-6.2308,-6.2411,-6.237,-6.2588,-6.2538,-6.2764,-6.2875,-6.29,-6.3062,-6.3071,-6.3209,-6.3238,-6.3333,-6.3634,-6.366,0,0,0,-6.2461,-6.2536,-6.2597,-6.2699,-6.279,-6.2871,-6.295,-6.2992,-6.3131,-6.2981,-6.3269,-6.3287,-6.3343,-6.3384,-6.3406,-6.3456,-6.3163,-6.3163,-6.3162,-6.2685,-6.2713,-6.2886,-6.2942,-6.304,-6.3122,-6.3204,-6.3273,-6.3269,-6.3337,-6.3386,-6.3566,-6.3612,-6.3629,-6.3681,-6.3431,-6.3431,-6.3432,-6.3432,-6.2948,-6.3058,-6.3053,-6.322,-6.3247,-6.3386,-6.3471,-6.3464,-6.3596,-6.3531,-6.3581,-6.3508,-6.3657,-6.3704,-6.3437,-6.3436,-6.3436,-6.3435,-6.3435,-6.3098,-6.3156,-6.3207,-6.3358,-6.3471,-6.3521,-6.365,-6.3669,-6.3687,-6.3738,-6.3792,-6.3791,-6.3793,-6.3762,-6.3763,-6.3764,-6.3764,-6.3765,-6.3765,-6.3235,-6.329,-6.3398,-6.3509,-6.3578,-6.3671,-6.3756,-6.3823,-6.3903,-6.3906,-6.3907,-6.3897,-6.3667,-6.3609,-6.3775,-6.3773,-6.3772,-6.3771,-6.377,-6.3492,-6.3438,-6.3604,-6.3674,-6.3807,-6.3919,-6.3943,-6.4079,-6.4137,-6.42,-6.418,-6.4007,-6.3998,-6.3981,-6.3933,-6.4173,-6.4173,-6.4173,-6.4173,-6.3619,-6.3618,-6.3795,-6.3905,-6.4014,-6.4054,-6.424,-6.4308,-6.4368,-6.4406,-6.4374,-6.4312,-6.4293,-6.4297,-6.4272,-6.4228,-6.4538,-6.4538,-6.4538,-6.378,-6.3791,-6.3947,-6.4009,-6.4115,-6.4205,-6.4381,-6.4506,-6.4562,-6.4553,-6.4436,-6.4421,-6.4321,-6.4287,-6.4275,-6.4237,-6.4156,0,0]}]]